Location: Newark
(34.6283°N, 36.0776°E)
Time: 21:06:48
(UTC+00:00)

A-11 Canister half - Visible Passes

Search period start: 19 October 2019 00:00
Search period end: 29 October 2019 00:00
Orbit: 1514 x 1686 km, 47.2° (Epoch: 18 October)

Date Brightness Start Highest point End Pass type
(mag) Time Alt. Az. Time Alt. Az. Time Alt. Az.
19 Oct 9.4 00:20:27 56° NNE 00:20:27 56° NNE 00:28:02 10° NE visible
19 Oct 9.7 02:18:40 20° WNW 02:24:50 39° N 02:33:35 10° ENE visible
19 Oct 9.7 23:58:52 45° NE 23:58:52 45° NE 00:05:07 10° NE visible
20 Oct 9.7 01:57:04 26° WNW 02:01:48 40° N 02:10:35 10° ENE visible
20 Oct 10.1 23:37:15 35° NE 23:37:15 35° NE 23:42:12 10° NE visible
21 Oct 9.7 01:35:28 32° NW 01:38:45 41° N 01:47:37 10° ENE visible
21 Oct 10.5 23:15:39 27° NE 23:15:39 27° NE 23:19:17 10° NE visible
22 Oct 9.6 01:13:50 38° NW 01:15:42 41° N 01:24:38 10° ENE visible
22 Oct 9.8 03:13:33 10° NW 03:22:43 44° NNE 03:31:33 10° E visible
22 Oct 10.8 22:54:01 20° NE 22:54:01 20° NE 22:56:22 10° NE visible
23 Oct 9.6 00:52:13 42° NNW 00:52:40 42° NNW 01:01:39 10° ENE visible
23 Oct 9.8 02:50:32 10° WNW 02:59:41 43° NNE 03:08:31 10° E visible
23 Oct 11.1 22:32:23 14° NE 22:32:23 14° NE 22:33:27 10° NE visible
24 Oct 9.7 00:30:35 42° N 00:30:35 42° N 00:38:42 10° ENE visible
24 Oct 9.8 02:28:48 14° NW 02:36:40 42° NNE 02:45:29 10° E visible
25 Oct 9.9 00:08:57 39° NNE 00:08:57 39° NNE 00:15:44 10° NE visible
25 Oct 9.8 02:07:10 20° NW 02:13:38 42° N 02:22:27 10° E visible
25 Oct 10.2 23:47:20 33° NNE 23:47:20 33° NNE 23:52:47 10° NE visible
26 Oct 9.8 01:45:32 25° NW 01:50:36 41° N 01:59:25 10° ENE visible
26 Oct 10.5 23:25:44 27° NE 23:25:44 27° NE 23:29:49 10° NE visible
27 Oct 9.8 01:23:56 31° NNW 01:27:33 40° N 01:36:23 10° ENE visible
27 Oct 9.3 03:24:09 10° NW 03:33:51 73° NNE 03:43:11 10° ESE visible
27 Oct 10.8 23:04:09 21° NE 23:04:09 21° NE 23:06:52 10° NE visible
28 Oct 9.8 01:02:21 36° NNW 01:04:30 40° N 01:13:21 10° ENE visible
28 Oct 9.3 03:01:12 10° NW 03:10:55 69° NNE 03:20:14 10° ESE visible
28 Oct 11.1 22:42:35 15° NE 22:42:35 15° NE 22:43:55 10° NE visible
